Location: Newark
(21.0333°N, 105.8500°E)
Time: 00:37:51
(UTC+00:00)

Envisat - Pass Details

Date: 13 December 2019
Orbit: 764 x 766 km, 98.1° (Epoch: 21 January)

Event Time Altitude Azimuth Distance (km) Brightness Sun altitude
Rises 12:17:17 0° 208° (SSW) 3,216 6.8 -27.2°
Reaches altitude 10° 12:20:46 10° 234° (SW) 2,293 6.3 -28.0°
Maximum altitude 12:23:15 14° 264° (W) 2,044 6.0 -28.6°
Drops below altitude 10° 12:25:46 10° 294° (WNW) 2,297 6.1 -29.1°
Sets 12:29:17 0° 319° (NW) 3,225 6.5 -29.9°
